Content
SEND FEEDBACK

Daily
Averages
Monthly
Summary
United States of America

ACHANG BAY, GUAM


Home > North America > United States > Guam
Elevation: 30 feet     Latitude: 13 16N     Longitude: 144 45E

WEATHER
 
SELECT A DAY
Number of Records: 351,467;   Date Range: 1/1/95 - 10/18/14
 
SHARE

PRINT THIS DATA

[ ← Previous Day ]
WEATHER ALMANAC - DECEMBER 22, 2013
[ Next Day → ]
[ °C ]   °F
Weather ElementAverageHighLow
Temperature80.3 °F84.2 °F (10:03 am)77.7 °F (6:58 am)
Dewpoint73.7 °F75.2 °F (1:33 am)71.6 °F (6:23 pm)
Humidity80.6 %90 % (5:58 am)69 % (1:58 pm)
Barometer29.90 in29.96 in (9:53 am)29.84 in (2:58 pm)
Wind Speed18.4 mph21.9 mph (10:58 am)
Wind Gust27.6 mph (7:58 pm)
Weather ElementAverage
Visibility10 mi
Wind DirectionENE (53.6 °)

Weather ElementTotal
Precipitation---
Cooling Degree Days16 (Base 65)
Growing Degree Days31 (Base 50)
Averaged from 36 records on December 22, 2013
WEATHER CONDITIONS BREAKOUT
WIND DIRECTION BREAKOUT
WEATHER BY HOUR - DECEMBER 22, 2013
[ °C ]   °F
Local TimeTemperatureDewpointHumidityBarometerVisibilityWind DirectionWind SpeedGust SpeedPrecipitationEventsConditions
1:33 AM78.8 °F75.2 °F89 %29.91 in10.0 miENE (60°)18.4 mphMostly Cloudy
1:43 AM78.8 °F75.2 °F89 %29.90 in10.0 miENE (60°)15.0 mphMostly Cloudy
1:58 AM78.8 °F75.2 °F89 %29.87 in10.0 miENE (60°)17.3 mphOvercast
2:38 AM78.8 °F75.2 °F89 %29.89 in10.0 miENE (60°)16.1 mphMostly Cloudy
2:48 AM78.8 °F75.2 °F89 %29.89 in10.0 miENE (60°)13.8 mphScattered Clouds
2:58 AM77.9 °F74.5 °F89 %29.86 in10.0 miENE (60°)16.1 mphScattered Clouds
3:58 AM77.9 °F73.4 °F86 %29.86 in10.0 miENE (60°)15.0 mphPartly Cloudy
4:58 AM77.9 °F73.6 °F86 %29.86 in10.0 miENE (60°)15.0 mphPartly Cloudy
5:58 AM77.9 °F74.7 °F90 %29.87 in10.0 miENE (60°)16.1 mphScattered Clouds
6:58 AM77.7 °F74.1 °F89 %29.89 in10.0 miENE (60°)16.1 mphPartly Cloudy
7:58 AM79.9 °F74.3 °F83 %29.91 in10.0 miNE (50°)17.3 mphClear
8:58 AM81.7 °F73.9 °F77 %29.92 in10.0 miENE (60°)18.4 mphClear
9:53 AM82.4 °F75.2 °F79 %29.96 in10.0 miNE (50°)19.6 mph25.3 mphMostly Cloudy
9:58 AM82.4 °F75.2 °F79 %29.94 in10.0 miNE (50°)19.6 mphMostly Cloudy
10:03 AM84.2 °F75.2 °F74 %29.96 in10.0 miNE (50°)17.3 mphMostly Cloudy
10:08 AM82.4 °F75.2 °F79 %29.96 in10.0 miNE (50°)19.6 mphMostly Cloudy
10:18 AM82.4 °F73.4 °F74 %29.95 in10.0 miENE (60°)20.7 mphScattered Clouds
10:58 AM83.7 °F73.4 °F71 %29.92 in10.0 miNE (50°)21.9 mphScattered Clouds
11:58 AM84.0 °F73.2 °F70 %29.91 in10.0 miENE (60°)18.4 mphPartly Cloudy
12:58 PM84.2 °F73.4 °F70 %29.88 in10.0 miNE (40°)16.1 mphPartly Cloudy
1:58 PM84.2 °F72.9 °F69 %29.86 in10.0 miNE (50°)19.6 mphPartly Cloudy
2:58 PM83.7 °F74.1 °F73 %29.84 in10.0 miNE (50°)20.7 mphScattered Clouds
3:58 PM82.4 °F73.6 °F75 %29.84 in10.0 miNE (50°)17.3 mph25.3 mphScattered Clouds
4:58 PM80.6 °F73.4 °F79 %29.86 in10.0 miNE (50°)21.9 mphScattered Clouds
5:58 PM79.3 °F72.5 °F79 %29.87 in10.0 miNE (50°)18.4 mphScattered Clouds
6:13 PM78.8 °F73.4 °F83 %29.90 in10.0 miNE (50°)17.3 mph23.0 mphMostly Cloudy
6:23 PM78.8 °F71.6 °F78 %29.91 in10.0 miNE (50°)17.3 mphScattered Clouds
6:58 PM79.3 °F73.4 °F82 %29.89 in10.0 miNE (50°)18.4 mphScattered Clouds
7:58 PM79.7 °F72.0 °F77 %29.91 in10.0 miNE (50°)21.9 mph27.6 mphMostly Cloudy
8:28 PM78.8 °F73.4 °F83 %29.95 in10.0 miNE (50°)19.6 mph27.6 mphMostly Cloudy
8:33 PM78.8 °F73.4 °F83 %29.95 in10.0 miNE (50°)18.4 mph27.6 mphMostly Cloudy
8:38 PM78.8 °F71.6 °F78 %29.95 in10.0 miNE (50°)21.9 mph26.5 mphMostly Cloudy
8:58 PM79.2 °F72.7 °F80 %29.92 in10.0 miNE (50°)18.4 mphScattered Clouds
9:58 PM78.6 °F72.1 °F80 %29.92 in10.0 miNE (50°)21.9 mphScattered Clouds
10:58 PM79.0 °F72.5 °F80 %29.92 in10.0 miENE (60°)20.7 mphPartly Cloudy
11:58 PM78.8 °F72.5 °F81 %29.92 in10.0 miNE (50°)21.9 mph27.6 mphScattered Clouds
Hourly data recorded from PGUA, located miles away from Achang Bay, Guam







STORIES FROM OUR PARTNERS